DW5499 Weather Reports


Display with metric or nautical units.
time (UTC)temp
F
wind
direction
speed
MPH
gust
MPH
rain 1hr
in
rain 24hr
in
rain mn
in
humidity
%
barometer
mb
20260901164620 91 206 8.0 15.0 0.00 0.00 0.00 50 1014.6
20260901163058 90 150 8.0 17.0 0.00 0.00 0.00 51 1014.6
20260901161557 89 209 7.0 16.0 0.00 0.00 0.00 52 1014.6
20260901160101 89 247 5.0 10.0 0.00 0.00 0.00 51 1014.7
20260901154553 88 160 3.0 11.0 0.00 0.00 0.00 53 1014.7
20260901153051 87 129 9.0 16.0 0.00 0.00 0.00 53 1014.6
20260901151548 86 193 6.0 14.0 0.00 0.00 0.00 54 1014.7
20260901150048 86 164 7.0 15.0 0.00 0.00 0.00 54 1014.6
20260901144547 86 239 3.0 9.0 0.00 0.00 0.00 56 1014.7
20260901143047 85 175 2.0 6.0 0.00 0.00 0.00 58 1014.8
20260901141546 83 155 3.0 7.0 0.00 0.00 0.00 59 1015.0
20260901140052 81 142 2.0 6.0 0.00 0.00 0.00 62 1015.1
20260901134559 81 137 1.0 5.0 0.00 0.00 0.00 62 1015.1
20260901133049 80 159 0.0 9.0 0.00 0.00 0.00 64 1015.1
20260901131544 79 143 0.0 5.0 0.00 0.00 0.00 65 1015.0
20260901130045 78 133 0.0 2.0 0.00 0.00 0.00 67 1015.0
20260901124543 77 107 0.0 2.0 0.00 0.00 0.00 68 1014.8
20260901123038 76 70 1.0 3.0 0.00 0.00 0.00 69 1014.7
20260901121537 76 97 0.0 4.0 0.00 0.00 0.00 69 1014.6
20260901120050 76 186 1.0 4.0 0.00 0.00 0.00 66 1014.5
20260901114533 77 190 2.0 7.0 0.00 0.00 0.00 64 1014.4
20260901113035 77 164 1.0 7.0 0.00 0.00 0.00 64 1014.4
20260901111533 77 166 3.0 7.0 0.00 0.00 0.00 64 1014.2
20260901110040 77 166 2.0 7.0 0.00 0.00 0.00 63 1014.1
20260901104529 78 176 2.0 5.0 0.00 0.00 0.00 63 1013.9
20260901103030 78 182 3.0 7.0 0.00 0.00 0.00 63 1013.9
20260901101530 76 203 3.0 7.0 0.00 0.00 0.00 68 1013.9
20260901100026 73 110 2.0 5.0 0.00 0.00 0.00 78 1013.9
20260901094528 73 6 0.0 2.0 0.00 0.00 0.00 78 1013.4
20260901093021 74 103 0.0 2.0 0.00 0.00 0.00 77 1013.3
20260901091519 75 78 0.0 1.0 0.00 0.00 0.00 75 1013.3
20260901090014 77 78 0.0 2.0 0.00 0.00 0.00 71 1013.2
20260901084511 79 122 0.0 2.0 0.00 0.00 0.00 66 1013.1
20260901083011 79 158 1.0 3.0 0.00 0.00 0.00 62 1013.0
20260901081511 79 176 0.0 3.0 0.00 0.00 0.00 62 1012.8
20260901080010 79 152 0.0 3.0 0.00 0.00 0.00 63 1012.9
20260901074507 79 141 1.0 3.0 0.00 0.00 0.00 63 1012.9
20260901073003 80 152 0.0 2.0 0.00 0.00 0.00 62 1013.1
20260901071559 81 158 0.0 2.0 0.00 0.00 0.00 59 1013.2
20260901070103 82 153 0.0 4.0 0.00 0.00 0.00 56 1013.2
20260901064556 82 181 2.0 5.0 0.00 0.00 0.00 56 1013.3
20260901063053 83 158 0.0 3.0 0.00 0.00 0.00 55 1013.3
20260901061552 83 147 2.0 6.0 0.00 0.00 0.00 54 1013.4
20260901060050 84 203 5.0 7.0 0.00 0.00 0.00 54 1013.4
20260901054548 84 170 3.0 7.0 0.00 0.00 0.00 53 1013.4
20260901053114 85 170 3.0 6.0 0.00 0.00 0.00 52 1013.4
20260901051601 85 180 3.0 6.0 0.00 0.00 0.00 52 1013.3
20260901050042 85 164 3.0 6.0 0.00 0.00 0.00 52 1013.2
20260901044553 85 163 2.0 7.0 0.00 0.00 0.00 53 1013.1
20260901043041 86 207 3.0 5.0 0.00 0.00 0.00 53 1013.0
20260901041541 86 193 2.0 5.0 0.00 0.00 0.00 53 1012.9
20260901040058 87 164 3.0 7.0 0.00 0.00 0.00 54 1012.8
20260901034553 87 141 1.0 5.0 0.00 0.00 0.00 56 1012.7
20260901033038 87 188 2.0 4.0 0.00 0.00 0.00 56 1012.6
20260901031538 87 184 1.0 4.0 0.00 0.00 0.00 60 1012.6
20260901030038 87 137 0.0 2.0 0.00 0.00 0.00 62 1012.4
20260901024545 88 137 0.0 2.0 0.00 0.00 0.00 61 1012.4
20260901023053 89 137 1.0 2.0 0.00 0.00 0.00 60 1012.2
20260901021537 89 128 0.0 3.0 0.00 0.00 0.00 58 1012.1
20260901020041 89 114 0.0 2.0 0.00 0.00 0.00 56 1011.9
20260901014549 91 122 0.0 2.0 0.00 0.00 0.00 56 1011.9
20260901013036 92 201 2.0 4.0 0.00 0.00 0.00 53 1011.7
20260901011535 92 190 2.0 4.0 0.00 0.00 0.00 51 1011.5
20260901010035 94 214 1.0 4.0 0.00 0.00 0.00 49 1011.5
20260901004536 95 203 3.0 5.0 0.00 0.00 0.00 46 1011.4
20260901003033 97 177 3.0 7.0 0.00 0.00 0.00 44 1011.4
20260901001532 98 178 3.0 9.0 0.00 0.00 0.00 43 1011.4
20260901000033 99 160 4.0 6.0 0.00 0.00 0.00 42 1011.4
20260831234533 99 173 4.0 8.0 0.00 0.00 0.00 41 1011.4
20260831233032 99 193 4.0 5.0 0.00 0.00 0.00 40 1011.3
20260831231531 100 181 3.0 6.0 0.00 0.00 0.00 39 1011.3
20260831230032 100 162 2.0 5.0 0.00 0.00 0.00 40 1011.3
20260831224530 99 261 3.0 6.0 0.00 0.00 0.00 41 1011.3
20260831223030 100 238 5.0 7.0 0.00 0.00 0.00 41 1011.3
20260831221529 100 218 2.0 9.0 0.00 0.00 0.00 40 1011.4
20260831220028 100 168 1.0 6.0 0.00 0.00 0.00 40 1011.4
20260831214527 99 231 5.0 10.0 0.00 0.00 0.00 40 1011.5
20260831213027 100 263 6.0 10.0 0.00 0.00 0.00 39 1011.5
20260831211524 99 245 5.0 8.0 0.00 0.00 0.00 42 1011.6
20260831210024 98 247 3.0 9.0 0.00 0.00 0.00 43 1011.8
20260831204521 98 210 5.0 11.0 0.00 0.00 0.00 42 1011.9
20260831203019 98 237 6.0 11.0 0.00 0.00 0.00 42 1012.0
20260831201519 98 235 4.0 13.0 0.00 0.00 0.00 42 1012.2
20260831200035 97 208 5.0 15.0 0.00 0.00 0.00 42 1012.2
20260831194517 97 208 6.0 13.0 0.00 0.00 0.00 43 1012.2
20260831193026 97 211 2.0 13.0 0.00 0.00 0.00 43 1012.2
20260831191515 97 185 5.0 17.0 0.00 0.00 0.00 43 1012.2
20260831190014 96 200 5.0 12.0 0.00 0.00 0.00 44 1012.3
20260831184512 95 222 10.0 17.0 0.00 0.00 0.00 45 1012.3
20260831183011 95 160 6.0 12.0 0.00 0.00 0.00 46 1012.3
20260831181509 94 229 8.0 13.0 0.00 0.00 0.00 48 1012.6
20260831180016 94 193 5.0 11.0 0.00 0.00 0.00 47 1012.7
20260831174519 93 230 7.0 13.0 0.00 0.00 0.00 47 1012.8
20260831173004 93 197 3.0 14.0 0.00 0.00 0.00 49 1012.8
20260831171504 91 222 4.0 13.0 0.00 0.00 0.00 50 1012.8
20260831170001 90 218 5.0 15.0 0.00 0.00 0.00 52 1012.9